Year,Month,Day,Hour,Minute,Value (Times are PST for temperature in C)
2018,08,16,00,00,12.90
2018,08,16,00,01,12.90
2018,08,16,00,03,12.90
2018,08,16,00,04,12.90
2018,08,16,00,29,12.70
2018,08,16,00,30,12.70
2018,08,16,01,29,12.40
2018,08,16,01,30,12.40
2018,08,16,01,31,12.40
2018,08,16,01,32,12.40
2018,08,16,01,33,12.40
2018,08,16,01,34,12.40
2018,08,16,01,35,12.40
2018,08,16,01,36,12.40
2018,08,16,01,37,12.40
2018,08,16,01,38,12.40
2018,08,16,01,39,12.40
2018,08,16,01,40,12.40
2018,08,16,01,41,12.40
2018,08,16,01,42,12.40
2018,08,16,01,43,12.40
2018,08,16,01,44,12.40
2018,08,16,01,45,12.40
2018,08,16,01,46,12.40
2018,08,16,01,47,12.30
2018,08,16,01,48,12.30
2018,08,16,01,49,12.30
2018,08,16,01,50,12.30
2018,08,16,01,51,12.30
2018,08,16,01,52,12.30
2018,08,16,01,53,12.30
2018,08,16,01,54,12.30
2018,08,16,01,55,12.30
2018,08,16,01,56,12.40
2018,08,16,01,57,12.40
2018,08,16,01,58,12.30
2018,08,16,01,59,12.30
2018,08,16,02,00,12.30
2018,08,16,02,02,12.30
2018,08,16,02,03,12.30
2018,08,16,02,04,12.30
2018,08,16,02,29,12.10
2018,08,16,02,30,12.10
2018,08,16,02,31,12.10
2018,08,16,02,32,12.10
2018,08,16,02,33,12.10
2018,08,16,02,34,12.10
2018,08,16,02,35,12.10
2018,08,16,02,36,12.10
2018,08,16,02,37,12.10
2018,08,16,02,38,12.00
2018,08,16,02,39,12.00
2018,08,16,02,40,12.00
2018,08,16,02,41,12.00
2018,08,16,02,42,12.00
2018,08,16,02,43,12.00
2018,08,16,02,44,12.00
2018,08,16,02,45,12.00
2018,08,16,02,46,12.00
2018,08,16,02,47,12.00
2018,08,16,02,48,12.00
2018,08,16,02,49,11.90
2018,08,16,02,50,11.90
2018,08,16,02,51,11.90
2018,08,16,02,52,11.90
2018,08,16,02,54,11.90
2018,08,16,03,29,11.80
2018,08,16,03,30,11.80
2018,08,16,03,31,11.80
2018,08,16,03,32,11.80
2018,08,16,03,33,11.80
2018,08,16,03,34,11.80
2018,08,16,03,35,11.80
2018,08,16,03,36,11.80
2018,08,16,03,37,11.80
2018,08,16,03,38,11.80
2018,08,16,03,39,11.80
2018,08,16,03,40,11.80
2018,08,16,03,41,11.80
2018,08,16,03,42,11.80
2018,08,16,03,43,11.80
2018,08,16,03,44,11.80
2018,08,16,03,45,11.80
2018,08,16,03,46,11.80
2018,08,16,03,47,11.80
2018,08,16,03,48,11.80
2018,08,16,03,49,11.80
2018,08,16,03,50,11.80
2018,08,16,03,51,11.80
2018,08,16,03,52,11.80
2018,08,16,03,54,11.80
2018,08,16,04,29,11.80
2018,08,16,04,30,11.80
2018,08,16,04,31,11.80
2018,08,16,04,32,11.80
2018,08,16,04,33,11.80
2018,08,16,04,34,11.80
2018,08,16,04,35,11.80
2018,08,16,04,36,11.80
2018,08,16,04,37,11.80
2018,08,16,04,38,11.80
2018,08,16,04,39,11.80
2018,08,16,04,40,11.80
2018,08,16,04,41,11.80
2018,08,16,04,42,11.80
2018,08,16,04,43,11.80
2018,08,16,04,44,11.80
2018,08,16,04,45,11.80
2018,08,16,04,46,11.80
2018,08,16,04,47,11.80
2018,08,16,04,49,11.80
2018,08,16,05,29,11.90
2018,08,16,05,30,11.90
2018,08,16,05,31,11.90
2018,08,16,05,32,11.90
2018,08,16,05,33,11.90
2018,08,16,05,34,11.80
2018,08,16,05,35,11.80
2018,08,16,05,36,11.80
2018,08,16,05,37,11.80
2018,08,16,05,38,11.80
2018,08,16,05,39,11.80
2018,08,16,05,40,11.80
2018,08,16,05,41,11.80
2018,08,16,05,42,11.80
2018,08,16,05,43,11.80
2018,08,16,05,44,11.80
2018,08,16,05,45,11.80
2018,08,16,05,46,11.80
2018,08,16,05,47,11.80
2018,08,16,05,48,11.80
2018,08,16,05,49,11.80
2018,08,16,05,50,11.80
2018,08,16,05,51,11.80
2018,08,16,05,52,11.80
2018,08,16,05,53,11.80
2018,08,16,05,54,11.80
2018,08,16,05,55,11.80
2018,08,16,05,56,11.80
2018,08,16,05,58,11.80
2018,08,16,05,59,11.80
2018,08,16,06,29,11.60
2018,08,16,06,30,11.60
2018,08,16,07,29,12.00
2018,08,16,07,30,12.00
2018,08,16,07,31,12.10
2018,08,16,07,32,12.10
2018,08,16,07,33,12.10
2018,08,16,07,34,12.10
2018,08,16,07,35,12.10
2018,08,16,07,36,12.10
2018,08,16,07,37,12.10
2018,08,16,07,38,12.20
2018,08,16,07,39,12.20
2018,08,16,07,40,12.20
2018,08,16,07,41,12.20
2018,08,16,07,42,12.20
2018,08,16,07,43,12.20
2018,08,16,07,44,12.20
2018,08,16,07,45,12.20
2018,08,16,07,46,12.30
2018,08,16,07,47,12.30
2018,08,16,07,48,12.30
2018,08,16,07,49,12.30
2018,08,16,07,50,12.30
2018,08,16,07,51,12.30
2018,08,16,07,52,12.30
2018,08,16,07,53,12.30
2018,08,16,07,54,12.30
2018,08,16,07,55,12.30
2018,08,16,07,56,12.30
2018,08,16,07,58,12.40
2018,08,16,08,29,13.30
2018,08,16,08,30,13.30
2018,08,16,08,31,13.30
2018,08,16,08,32,13.40
2018,08,16,08,33,13.50
2018,08,16,08,34,13.50
2018,08,16,08,35,13.60
2018,08,16,08,36,13.60
2018,08,16,08,37,13.70
2018,08,16,08,38,13.70
2018,08,16,08,39,13.70
2018,08,16,08,40,13.70
2018,08,16,08,41,13.70
2018,08,16,08,42,13.70
2018,08,16,08,43,13.70
2018,08,16,08,44,13.70
2018,08,16,08,45,13.80
2018,08,16,08,46,13.80
2018,08,16,08,47,13.80
2018,08,16,08,48,13.90
2018,08,16,08,49,13.90
2018,08,16,08,50,14.00
2018,08,16,08,51,14.00
2018,08,16,08,52,14.00
2018,08,16,08,53,14.10
2018,08,16,08,54,14.20
2018,08,16,08,55,14.20
2018,08,16,08,57,14.20
2018,08,16,08,58,14.20
2018,08,16,08,59,14.30
2018,08,16,09,29,15.30
2018,08,16,09,30,15.30
2018,08,16,09,31,15.30
2018,08,16,09,32,15.40
2018,08,16,09,33,15.40
2018,08,16,09,34,15.40
2018,08,16,09,35,15.40
2018,08,16,09,36,15.40
2018,08,16,09,37,15.40
2018,08,16,09,38,15.40
2018,08,16,09,39,15.40
2018,08,16,09,40,15.50
2018,08,16,09,41,15.50
2018,08,16,09,42,15.60
2018,08,16,09,43,15.60
2018,08,16,09,44,15.70
2018,08,16,09,45,15.70
2018,08,16,09,46,15.70
2018,08,16,09,47,15.70
2018,08,16,09,48,15.70
2018,08,16,09,49,15.70
2018,08,16,09,50,15.80
2018,08,16,09,51,15.80
2018,08,16,09,52,15.80
2018,08,16,09,53,15.80
2018,08,16,09,54,15.80
2018,08,16,09,55,15.80
2018,08,16,09,56,15.80
2018,08,16,09,57,15.80
2018,08,16,09,59,15.90
2018,08,16,10,29,17.30
2018,08,16,10,30,17.20
2018,08,16,10,31,17.20
2018,08,16,10,32,17.20
2018,08,16,10,33,17.10
2018,08,16,10,34,17.10
2018,08,16,10,35,17.10
2018,08,16,10,36,17.10
2018,08,16,10,37,17.20
2018,08,16,10,38,17.20
2018,08,16,10,39,17.30
2018,08,16,10,40,17.30
2018,08,16,10,41,17.30
2018,08,16,10,42,17.40
2018,08,16,10,43,17.40
2018,08,16,10,44,17.40
2018,08,16,10,45,17.40
2018,08,16,10,46,17.40
2018,08,16,10,47,17.50
2018,08,16,10,48,17.50
2018,08,16,10,49,17.60
2018,08,16,10,50,17.70
2018,08,16,10,51,17.70
2018,08,16,10,52,17.80
2018,08,16,10,53,17.90
2018,08,16,10,54,17.90
2018,08,16,10,55,17.90
2018,08,16,10,56,18.10
2018,08,16,10,58,18.20
2018,08,16,10,59,18.20
2018,08,16,11,29,17.30
2018,08,16,11,30,17.30
2018,08,16,11,31,17.30
2018,08,16,11,32,17.30
2018,08,16,11,33,17.30
2018,08,16,11,34,17.30
2018,08,16,11,35,17.30
2018,08,16,11,36,17.30
2018,08,16,11,37,17.30
2018,08,16,11,38,17.40
2018,08,16,11,39,17.40
2018,08,16,11,40,17.40
2018,08,16,11,41,17.50
2018,08,16,11,42,17.50
2018,08,16,11,43,17.60
2018,08,16,11,44,17.70
2018,08,16,11,45,17.80
2018,08,16,11,46,17.90
2018,08,16,11,47,17.90
2018,08,16,11,48,17.90
2018,08,16,11,49,17.90
2018,08,16,11,50,17.90
2018,08,16,11,51,17.90
2018,08,16,11,52,18.10
2018,08,16,11,54,18.20
2018,08,16,12,29,17.20
2018,08,16,12,30,17.20
2018,08,16,13,29,17.60
2018,08,16,13,30,17.50
2018,08,16,13,31,17.40
2018,08,16,13,32,17.40
2018,08,16,13,33,17.40
2018,08,16,13,34,17.40
2018,08,16,13,35,17.40
2018,08,16,13,36,17.40
2018,08,16,13,37,17.40
2018,08,16,13,38,17.30
2018,08,16,13,39,17.30
2018,08,16,13,40,17.30
2018,08,16,13,41,17.20
2018,08,16,13,42,17.20
2018,08,16,13,43,17.10
2018,08,16,13,44,17.10
2018,08,16,13,45,17.10
2018,08,16,13,46,17.00
2018,08,16,13,47,17.00
2018,08,16,13,48,17.00
2018,08,16,13,49,17.00
2018,08,16,13,50,17.00
2018,08,16,13,51,17.10
2018,08,16,13,52,17.10
2018,08,16,13,53,17.10
2018,08,16,13,54,17.10
2018,08,16,13,55,17.10
2018,08,16,13,57,17.00
2018,08,16,14,29,16.80
2018,08,16,14,30,16.70
2018,08,16,14,31,16.70
2018,08,16,14,32,16.70
2018,08,16,14,33,16.70
2018,08,16,14,34,16.70
2018,08,16,14,35,16.70
2018,08,16,14,36,16.70
2018,08,16,14,37,16.60
2018,08,16,14,38,16.70
2018,08,16,14,39,16.70
2018,08,16,14,40,16.70
2018,08,16,14,41,16.70
2018,08,16,14,42,16.70
2018,08,16,14,43,16.70
2018,08,16,14,44,16.70
2018,08,16,14,45,16.70
2018,08,16,14,46,16.70
2018,08,16,14,47,16.80
2018,08,16,14,48,16.80
2018,08,16,14,49,16.90
2018,08,16,14,50,16.90
2018,08,16,14,51,16.90
2018,08,16,14,52,16.90
2018,08,16,14,53,17.00
2018,08,16,14,54,17.00
2018,08,16,14,55,17.00
2018,08,16,14,57,17.10
2018,08,16,15,29,16.60
2018,08,16,15,30,16.60
2018,08,16,15,31,16.70
2018,08,16,15,32,16.70
2018,08,16,15,33,16.70
2018,08,16,15,34,16.60
2018,08,16,15,35,16.60
2018,08,16,15,36,16.40
2018,08,16,15,37,16.40
2018,08,16,15,38,16.40
2018,08,16,15,39,16.40
2018,08,16,15,40,16.40
2018,08,16,15,41,16.40
2018,08,16,15,42,16.40
2018,08,16,15,43,16.40
2018,08,16,15,44,16.40
2018,08,16,15,45,16.40
2018,08,16,15,46,16.30
2018,08,16,15,47,16.30
2018,08,16,15,48,16.20
2018,08,16,15,49,16.10
2018,08,16,15,50,16.10
2018,08,16,15,51,16.10
2018,08,16,15,52,16.10
2018,08,16,15,53,15.90
2018,08,16,15,54,15.80
2018,08,16,15,56,15.80
2018,08,16,15,57,15.80
2018,08,16,15,58,15.80
2018,08,16,15,59,15.80
2018,08,16,16,29,15.70
2018,08,16,16,30,15.70
2018,08,16,16,31,15.70
2018,08,16,16,32,15.70
2018,08,16,16,33,15.70
2018,08,16,16,34,15.70
2018,08,16,16,35,15.70
2018,08,16,16,36,15.80
2018,08,16,16,37,15.80
2018,08,16,16,38,15.80
2018,08,16,16,39,15.80
2018,08,16,16,40,15.80
2018,08,16,16,41,15.80
2018,08,16,16,42,15.80
2018,08,16,16,43,15.80
2018,08,16,16,44,15.80
2018,08,16,16,45,15.80
2018,08,16,16,46,15.80
2018,08,16,16,47,15.80
2018,08,16,16,48,15.80
2018,08,16,16,49,15.80
2018,08,16,16,50,15.80
2018,08,16,16,51,15.80
2018,08,16,16,52,15.80
2018,08,16,16,53,15.80
2018,08,16,16,54,15.80
2018,08,16,16,55,15.80
2018,08,16,16,57,15.80
2018,08,16,16,58,15.80
2018,08,16,16,59,15.80
2018,08,16,17,29,15.50
2018,08,16,17,30,15.50
2018,08,16,17,31,15.50
2018,08,16,17,32,15.50
2018,08,16,17,33,15.50
2018,08,16,17,34,15.50
2018,08,16,17,35,15.50
2018,08,16,17,36,15.50
2018,08,16,17,37,15.50
2018,08,16,17,38,15.50
2018,08,16,17,39,15.50
2018,08,16,17,40,15.50
2018,08,16,17,41,15.40
2018,08,16,17,42,15.30
2018,08,16,17,43,15.30
2018,08,16,17,44,15.30
2018,08,16,17,45,15.30
2018,08,16,17,46,15.30
2018,08,16,17,47,15.30
2018,08,16,17,48,15.40
2018,08,16,17,49,15.40
2018,08,16,17,50,15.50
2018,08,16,17,51,15.60
2018,08,16,17,52,15.60
2018,08,16,17,53,15.70
2018,08,16,17,54,15.80
2018,08,16,17,55,15.80
2018,08,16,17,57,15.90
2018,08,16,17,58,16.10
2018,08,16,17,59,16.10
2018,08,16,18,29,16.60
2018,08,16,18,30,16.70
2018,08,16,19,29,18.50
2018,08,16,19,30,18.50
2018,08,16,19,31,18.50
2018,08,16,19,32,18.50
2018,08,16,19,33,18.50
2018,08,16,19,34,18.50
2018,08,16,19,35,18.50
2018,08,16,19,36,18.40
2018,08,16,19,37,18.40
2018,08,16,19,38,18.30
2018,08,16,19,39,18.20
2018,08,16,19,40,18.10
2018,08,16,19,41,17.90
2018,08,16,19,42,17.90
2018,08,16,19,43,17.80
2018,08,16,19,44,17.70
2018,08,16,19,45,17.60
2018,08,16,19,46,17.50
2018,08,16,19,47,17.30
2018,08,16,19,48,17.30
2018,08,16,19,49,17.20
2018,08,16,19,50,17.10
2018,08,16,19,51,17.00
2018,08,16,19,52,16.90
2018,08,16,19,53,16.80
2018,08,16,19,54,16.70
2018,08,16,19,55,16.70
2018,08,16,19,57,16.40
2018,08,16,19,58,16.40
2018,08,16,20,29,15.50
2018,08,16,20,30,15.50
2018,08,16,20,31,15.50
2018,08,16,20,32,15.40
2018,08,16,20,33,15.40
2018,08,16,20,34,15.40
2018,08,16,20,35,15.40
2018,08,16,20,36,15.40
2018,08,16,20,37,15.40
2018,08,16,20,38,15.40
2018,08,16,20,39,15.40
2018,08,16,20,40,15.40
2018,08,16,20,41,15.40
2018,08,16,20,42,15.40
2018,08,16,20,43,15.40
2018,08,16,20,44,15.40
2018,08,16,20,45,15.40
2018,08,16,20,46,15.40
2018,08,16,20,47,15.40
2018,08,16,20,48,15.40
2018,08,16,20,49,15.40
2018,08,16,20,50,15.40
2018,08,16,20,51,15.40
2018,08,16,20,52,15.40
2018,08,16,20,53,15.30
2018,08,16,20,54,15.30
2018,08,16,20,55,15.30
2018,08,16,20,56,15.30
2018,08,16,20,58,15.30
2018,08,16,21,29,14.90
2018,08,16,21,30,14.80
2018,08,16,21,31,14.80
2018,08,16,21,32,14.80
2018,08,16,21,33,14.80
2018,08,16,21,34,14.80
2018,08,16,21,35,14.80
2018,08,16,21,36,14.80
2018,08,16,21,37,14.80
2018,08,16,21,38,14.80
2018,08,16,21,39,14.80
2018,08,16,21,40,14.80
2018,08,16,21,41,14.80
2018,08,16,21,42,14.80
2018,08,16,21,43,14.80
2018,08,16,21,44,14.80
2018,08,16,21,45,14.70
2018,08,16,21,46,14.70
2018,08,16,21,47,14.70
2018,08,16,21,48,14.60
2018,08,16,21,49,14.60
2018,08,16,21,50,14.60
2018,08,16,21,51,14.60
2018,08,16,21,52,14.60
2018,08,16,21,54,14.50
2018,08,16,22,29,13.70
2018,08,16,22,30,13.70
2018,08,16,22,31,13.70
2018,08,16,22,32,13.70
2018,08,16,22,33,13.70
2018,08,16,22,34,13.70
2018,08,16,22,35,13.60
2018,08,16,22,36,13.60
2018,08,16,22,37,13.60
2018,08,16,22,38,13.60
2018,08,16,22,39,13.60
2018,08,16,22,40,13.60
2018,08,16,22,41,13.60
2018,08,16,22,42,13.60
2018,08,16,22,43,13.60
2018,08,16,22,44,13.60
2018,08,16,22,45,13.60
2018,08,16,22,47,13.60
2018,08,16,23,29,13.60
2018,08,16,23,30,13.70
2018,08,16,23,31,13.70
2018,08,16,23,32,13.70
2018,08,16,23,33,13.70
2018,08,16,23,34,13.70
2018,08,16,23,35,13.70
2018,08,16,23,37,13.70
2018,08,16,23,38,13.70
2018,08,16,23,39,13.70
